FW9692 Weather Reports


time (UTC)temp
C
wind
direction
speed
KPH
gust
KPH
rain 1hr
cm
rain 24hr
cm
rain mn
cm
humidity
%
barometer
mb
20260505190053 24 252 33.8 43.5 0.00 0.00 0.00 30 997.2
20260505184552 24 259 35.4 53.1 0.00 0.00 0.00 30 997.2
20260505183051 24 259 37.0 54.7 0.00 0.00 0.00 30 997.4
20260505181552 24 279 40.2 54.7 0.00 0.00 0.00 31 997.7
20260505180053 25 269 33.8 49.9 0.00 0.00 0.00 31 997.9
20260505174552 24 302 30.6 41.8 0.00 0.00 0.00 31 998.0
20260505173055 24 286 30.6 45.1 0.00 0.00 0.00 31 998.0
20260505171550 23 291 32.2 41.8 0.00 0.00 0.00 31 998.0
20260505170104 23 317 33.8 48.3 0.00 0.00 0.00 30 998.1
20260505164547 23 286 38.6 49.9 0.00 0.00 0.00 31 997.9
20260505163044 23 275 37.0 45.1 0.00 0.00 0.00 29 997.9
20260505161542 23 290 40.2 48.3 0.00 0.00 0.00 29 997.8
20260505153036 22 280 32.2 46.7 0.00 0.00 0.00 29 997.4
20260505151549 22 277 38.6 49.9 0.00 0.00 0.00 29 997.2
20260505124510 20 230 22.5 25.7 0.00 0.00 0.00 33 996.1
20260505123004 20 229 20.9 24.1 0.00 0.00 0.00 33 995.9
20260505121503 20 227 20.9 24.1 0.00 0.00 0.00 32 995.8
20260505120100 20 217 20.9 25.7 0.00 0.00 0.00 30 995.8
20260505114558 20 212 19.3 22.5 0.00 0.00 0.00 31 995.5
20260505113057 21 200 16.1 17.7 0.00 0.00 0.00 30 995.4
20260505111559 21 205 17.7 19.3 0.00 0.00 0.00 27 995.4
20260505101601 20 252 16.1 22.5 0.00 0.00 0.00 32 995.2
20260505094546 21 250 19.3 22.5 0.00 0.00 0.00 31 995.2
20260505093046 21 252 20.9 24.1 0.00 0.00 0.00 31 995.3
20260505091545 21 232 20.9 27.4 0.00 0.00 0.00 32 995.3
20260505090055 22 245 22.5 27.4 0.00 0.00 0.00 31 995.2
20260505084548 22 259 22.5 27.4 0.00 0.00 0.00 29 995.1
20260505083039 23 242 19.3 24.1 0.00 0.00 0.00 30 995.2
20260505081543 23 238 20.9 25.7 0.00 0.00 0.00 28 995.2
20260505080034 24 236 20.9 32.2 0.00 0.00 0.00 28 995.4
20260505074536 24 235 22.5 32.2 0.00 0.00 0.00 28 995.6
20260505073038 23 219 19.3 29.0 0.00 0.00 0.00 28 995.4
20260505071531 23 177 14.5 22.5 0.00 0.00 0.00 30 995.7
20260505070032 23 246 17.7 22.5 0.00 0.00 0.00 30 995.7
20260505064529 23 246 17.7 29.0 0.00 0.00 0.00 29 995.6
20260505063029 23 242 24.1 29.0 0.00 0.00 0.00 27 995.5
20260505061531 23 207 19.3 27.4 0.00 0.00 0.00 29 995.7
20260505060033 23 190 12.9 14.5 0.00 0.00 0.00 30 995.8
20260505054535 23 183 11.3 12.9 0.00 0.00 0.00 30 996.2
20260505053023 24 228 9.7 17.7 0.00 0.00 0.00 27 996.1
20260505051523 24 229 19.3 24.1 0.00 0.00 0.00 27 996.2
20260505041528 25 227 11.3 16.1 0.00 0.00 0.00 24 996.4
20260505040026 25 230 20.9 25.7 0.00 0.00 0.00 24 996.4
20260505034529 26 263 19.3 25.7 0.00 0.00 0.00 21 996.2
20260505033044 26 245 20.9 25.7 0.00 0.00 0.00 22 995.7
20260505031529 26 252 22.5 25.7 0.00 0.00 0.00 21 995.6
20260505030029 26 243 24.1 27.4 0.00 0.00 0.00 22 995.5
20260505024522 26 253 27.4 33.8 0.00 0.00 0.00 21 995.6
20260505023022 27 250 25.7 35.4 0.00 0.00 0.00 21 995.6
20260505021520 27 254 32.2 41.8 0.00 0.00 0.00 20 995.3
20260505020019 27 254 40.2 53.1 0.00 0.00 0.00 19 995.2
20260505014522 27 262 37.0 48.3 0.00 0.00 0.00 19 995.2
20260505013020 27 268 40.2 48.3 0.00 0.00 0.00 18 995.1
20260505011520 28 248 32.2 56.3 0.00 0.00 0.00 18 995.2
20260505010016 28 259 45.1 61.2 0.00 0.00 0.00 17 994.9
20260505004536 28 252 45.1 59.5 0.00 0.00 0.00 16 995.2
20260505003020 29 265 51.5 67.6 0.00 0.00 0.00 16 994.9
20260505001521 29 266 56.3 72.4 0.00 0.00 0.00 16 995.2
20260505000022 30 269 48.3 66.0 0.00 0.00 0.00 16 995.1
20260504234528 30 273 51.5 64.4 0.00 0.00 0.00 16 995.4
20260504233019 30 243 43.5 61.2 0.00 0.00 0.00 16 995.8
20260504231532 29 275 33.8 51.5 0.00 0.00 0.00 16 996.1
20260504230016 29 277 35.4 53.1 0.00 0.00 0.00 15 996.2
20260504224518 29 261 43.5 56.3 0.00 0.00 0.00 15 996.3
20260504223015 29 257 37.0 51.5 0.00 0.00 0.00 15 996.5
20260504221512 29 270 29.0 56.3 0.00 0.00 0.00 15 996.8
20260504220012 30 284 45.1 56.3 0.00 0.00 0.00 15 996.9
20260504214516 30 261 40.2 49.9 0.00 0.00 0.00 13 996.9
20260504213010 30 281 46.7 61.2 0.00 0.00 0.00 13 997.0
20260504211503 29 261 45.1 61.2 0.00 0.00 0.00 13 997.3
20260504210001 30 284 45.1 57.9 0.00 0.00 0.00 13 997.4
20260504204638 30 261 43.5 61.2 0.00 0.00 0.00 12 997.7
20260504203059 29 262 37.0 64.4 0.00 0.00 0.00 14 997.8
20260504201559 29 254 45.1 64.4 0.00 0.00 0.00 13 998.2
20260504200057 29 265 45.1 64.4 0.00 0.00 0.00 13 998.3
20260504194555 29 262 43.5 67.6 0.00 0.00 0.00 15 998.6
20260504193049 28 277 46.7 57.9 0.00 0.00 0.00 16 999.0
20260504191544 28 270 30.6 54.7 0.00 0.00 0.00 17 999.2